�������l�o���
Date,Time,MP-1(��Sv/h),MP-2(��Sv/h),MP-3(��Sv/h),MP-4(��Sv/h),MP-5(��Sv/h),MP-6(��Sv/h),MP-7(��Sv/h),MP-8(��Sv/h),����,����(m/s),���J
2021/02/02,00:00,0.670,0.952,0.610,1.207,0.849,0.378,0.670,0.632,�쐼,6.5,��
2021/02/02,00:10,0.668,0.951,0.610,1.205,0.846,0.380,0.673,0.632,��쐼,4.4,��
2021/02/02,00:20,0.669,0.952,0.610,1.205,0.848,0.380,0.669,0.632,��,4.8,��
2021/02/02,00:30,0.669,0.952,0.611,1.206,0.848,0.380,0.670,0.632,��,3.4,��
2021/02/02,00:40,0.668,0.951,0.609,1.205,0.848,0.380,0.672,0.631,��,4.2,��
2021/02/02,00:50,0.669,0.951,0.610,1.206,0.849,0.380,0.672,0.633,��,3.3,��
2021/02/02,01:00,0.669,0.950,0.611,1.204,0.849,0.381,0.673,0.632,��쐼,4.9,��
2021/02/02,01:10,0.671,0.951,0.612,1.206,0.849,0.381,0.673,0.632,��쐼,6.6,��
2021/02/02,01:20,0.672,0.951,0.611,1.205,0.849,0.380,0.672,0.632,��쐼,5.7,��
2021/02/02,01:30,0.669,0.950,0.609,1.205,0.848,0.381,0.671,0.632,��쐼,6.9,��
2021/02/02,01:40,0.669,0.953,0.608,1.206,0.850,0.381,0.671,0.632,��쐼,4.7,��
2021/02/02,01:50,0.670,0.953,0.610,1.203,0.849,0.383,0.673,0.632,��쐼,4.1,��
2021/02/02,02:00,0.668,0.950,0.609,1.205,0.849,0.382,0.672,0.631,��쐼,4.6,��
2021/02/02,02:10,0.669,0.951,0.611,1.203,0.849,0.381,0.674,0.632,��,5.4,��
2021/02/02,02:20,0.669,0.948,0.609,1.206,0.848,0.381,0.673,0.632,��,5.9,��
2021/02/02,02:30,0.669,0.952,0.609,1.205,0.849,0.380,0.670,0.633,��,5.7,��
2021/02/02,02:40,0.669,0.952,0.610,1.206,0.850,0.380,0.673,0.632,��,5.3,��
2021/02/02,02:50,0.669,0.950,0.611,1.204,0.849,0.381,0.672,0.632,��,4.8,��
2021/02/02,03:00,0.670,0.951,0.608,1.205,0.847,0.382,0.672,0.631,��쐼,3.8,��
2021/02/02,03:10,0.670,0.951,0.611,1.203,0.850,0.381,0.670,0.632,��쐼,3.0,��
2021/02/02,03:20,0.669,0.949,0.611,1.204,0.850,0.381,0.673,0.633,�쐼,2.6,��
2021/02/02,03:30,0.670,0.950,0.610,1.204,0.847,0.380,0.671,0.630,�쐼,1.7,�L
2021/02/02,03:40,0.670,0.952,0.610,1.203,0.848,0.380,0.673,0.631,��,1.7,�L
2021/02/02,03:50,0.670,0.952,0.612,1.206,0.848,0.381,0.675,0.632,�k��,5.5,��
2021/02/02,04:00,0.669,0.953,0.608,1.203,0.850,0.382,0.671,0.632,�k�k��,6.7,��
2021/02/02,04:10,0.670,0.951,0.610,1.205,0.849,0.380,0.672,0.632,���k��,5.3,��
2021/02/02,04:20,0.671,0.951,0.612,1.203,0.849,0.380,0.673,0.631,��,3.7,��
2021/02/02,04:30,0.669,0.951,0.611,1.205,0.850,0.381,0.673,0.631,���쐼,4.8,��
2021/02/02,04:40,0.670,0.951,0.610,1.206,0.847,0.381,0.674,0.633,��,3.3,�L
2021/02/02,04:50,0.670,0.952,0.611,1.207,0.849,0.380,0.672,0.633,���쐼,1.9,�L
2021/02/02,05:00,0.670,0.950,0.609,1.206,0.850,0.380,0.671,0.632,�k��,2.6,��
2021/02/02,05:10,0.669,0.951,0.611,1.206,0.848,0.382,0.674,0.634,�k��,3.9,��
2021/02/02,05:20,0.670,0.954,0.609,1.204,0.848,0.381,0.672,0.632,�k��,2.0,��
2021/02/02,05:30,0.669,0.951,0.610,1.206,0.848,0.381,0.672,0.631,�k,0.6,��
2021/02/02,05:40,0.670,0.952,0.609,1.206,0.847,0.381,0.673,0.633,�k��,1.7,��
2021/02/02,05:50,0.670,0.950,0.609,1.206,0.849,0.382,0.672,0.632,�k��,2.0,��
2021/02/02,06:00,0.669,0.951,0.610,1.203,0.848,0.382,0.674,0.633,��,5.3,��
2021/02/02,06:10,0.670,0.952,0.611,1.206,0.849,0.383,0.672,0.633,��,6.2,��
2021/02/02,06:20,0.670,0.952,0.610,1.206,0.849,0.382,0.671,0.632,���k��,5.9,��
2021/02/02,06:30,0.670,0.953,0.610,1.206,0.849,0.381,0.671,0.633,��,8.3,��
2021/02/02,06:40,0.671,0.953,0.611,1.205,0.850,0.380,0.670,0.631,��,10.6,��
2021/02/02,06:50,0.669,0.952,0.611,1.205,0.849,0.382,0.672,0.633,��,8.7,��
2021/02/02,07:00,0.671,0.955,0.611,1.206,0.849,0.381,0.671,0.634,��,10.2,��
2021/02/02,07:10,0.671,0.953,0.611,1.205,0.850,0.380,0.671,0.634,��,12.4,��
2021/02/02,07:20,0.670,0.950,0.610,1.208,0.850,0.381,0.672,0.633,��,13.5,��
2021/02/02,07:30,0.671,0.951,0.612,1.208,0.849,0.381,0.673,0.633,��,10.0,��
2021/02/02,07:40,0.671,0.952,0.611,1.209,0.849,0.382,0.673,0.633,��,15.8,��
2021/02/02,07:50,0.671,0.951,0.610,1.208,0.851,0.382,0.672,0.633,��,16.1,��
2021/02/02,08:00,0.671,0.953,0.611,1.207,0.850,0.382,0.671,0.635,��,14.9,��
2021/02/02,08:10,0.673,0.951,0.612,1.207,0.850,0.382,0.672,0.634,��,13.6,��
2021/02/02,08:20,0.672,0.952,0.611,1.209,0.850,0.382,0.672,0.634,��,11.8,�L
2021/02/02,08:30,0.674,0.952,0.613,1.209,0.853,0.383,0.673,0.635,��,16.9,�L
2021/02/02,08:40,0.674,0.952,0.614,1.210,0.856,0.384,0.674,0.635,��,13.8,��
2021/02/02,08:50,0.673,0.952,0.614,1.210,0.850,0.384,0.673,0.633,��,14.2,��
2021/02/02,09:00,0.674,0.950,0.614,1.213,0.852,0.383,0.673,0.635,���쐼,13.3,��
2021/02/02,09:10,0.672,0.952,0.613,1.212,0.851,0.384,0.672,0.635,��,12.8,��
2021/02/02,09:20,0.674,0.952,0.613,1.211,0.852,0.382,0.672,0.635,��,14.7,��
2021/02/02,09:30,0.674,0.953,0.613,1.210,0.853,0.382,0.672,0.634,��,13.0,��
2021/02/02,09:40,0.672,0.953,0.613,1.211,0.851,0.382,0.672,0.635,��,16.4,��
2021/02/02,09:50,0.672,0.953,0.611,1.209,0.851,0.382,0.671,0.635,��,17.2,��
2021/02/02,10:00,0.672,0.950,0.613,1.209,0.850,0.383,0.672,0.634,��,15.7,��
2021/02/02,10:10,0.673,0.953,0.612,1.209,0.852,0.382,0.673,0.637,��,13.0,��
2021/02/02,10:20,0.672,0.952,0.613,1.209,0.849,0.383,0.671,0.635,��,12.7,��
2021/02/02,10:30,0.674,0.952,0.614,1.208,0.852,0.383,0.671,0.635,��,14.1,��
2021/02/02,10:40,0.673,0.950,0.612,1.209,0.853,0.383,0.673,0.635,��,12.4,��
2021/02/02,10:50,0.673,0.952,0.611,1.209,0.851,0.382,0.672,0.634,��,10.2,��
2021/02/02,11:00,0.673,0.951,0.613,1.207,0.851,0.381,0.673,0.635,��,12.0,��
2021/02/02,11:10,0.671,0.951,0.613,1.210,0.850,0.383,0.673,0.637,��,10.7,��
2021/02/02,11:20,0.669,0.950,0.612,1.210,0.851,0.382,0.674,0.635,��,12.2,��
2021/02/02,11:30,0.669,0.950,0.610,1.209,0.851,0.382,0.673,0.635,��,8.8,��
2021/02/02,11:40,0.670,0.952,0.611,1.208,0.850,0.381,0.674,0.638,���k��,8.7,��
2021/02/02,11:50,0.671,0.951,0.613,1.209,0.850,0.381,0.673,0.634,���k��,10.8,��
2021/02/02,12:00,0.670,0.953,0.613,1.211,0.852,0.380,0.672,0.634,���k��,6.6,��
2021/02/02,12:10,0.669,0.953,0.612,1.210,0.853,0.381,0.673,0.636,��,6.6,��
2021/02/02,12:20,0.668,0.954,0.611,1.209,0.850,0.380,0.674,0.636,��,6.7,��
2021/02/02,12:30,0.668,0.953,0.610,1.210,0.850,0.380,0.674,0.634,���k��,10.6,��
2021/02/02,12:40,0.670,0.952,0.612,1.212,0.850,0.382,0.673,0.635,���k��,13.0,��
2021/02/02,12:50,0.668,0.954,0.612,1.210,0.849,0.382,0.673,0.636,���k��,9.6,��
2021/02/02,13:00,0.668,0.952,0.610,1.211,0.851,0.384,0.673,0.634,��,6.9,��
2021/02/02,13:10,0.668,0.953,0.610,1.212,0.850,0.383,0.673,0.632,���k��,8.6,��
2021/02/02,13:20,0.667,0.951,0.612,1.210,0.849,0.383,0.673,0.632,�k�k��,6.7,��
2021/02/02,13:30,0.670,0.953,0.610,1.210,0.850,0.384,0.672,0.631,�k�k��,4.5,��
2021/02/02,13:40,0.668,0.950,0.610,1.211,0.850,0.383,0.671,0.632,�k��,6.8,��
2021/02/02,13:50,0.669,0.951,0.610,1.210,0.851,0.382,0.673,0.631,�k�k��,10.9,��
2021/02/02,14:00,0.667,0.954,0.611,1.212,0.850,0.381,0.672,0.633,�k��,9.7,��
2021/02/02,14:10,0.668,0.954,0.608,1.213,0.850,0.380,0.672,0.632,�k��,12.0,��
2021/02/02,14:20,0.667,0.955,0.607,1.210,0.851,0.382,0.671,0.630,�k��,11.6,��
2021/02/02,14:30,0.666,0.953,0.609,1.212,0.852,0.379,0.673,0.630,�k��,11.6,��
2021/02/02,14:40,0.667,0.953,0.611,1.212,0.850,0.380,0.672,0.631,�k��,11.4,��
2021/02/02,14:50,0.667,0.952,0.611,1.212,0.852,0.381,0.671,0.630,�k��,9.5,��
2021/02/02,15:00,0.669,0.951,0.610,1.210,0.850,0.382,0.670,0.631,�k��,10.5,��
2021/02/02,15:10,0.667,0.953,0.610,1.211,0.852,0.380,0.671,0.631,�k��,11.6,��
2021/02/02,15:20,0.667,0.954,0.610,1.212,0.852,0.381,0.672,0.631,�k��,10.2,��
2021/02/02,15:30,0.665,0.957,0.610,1.211,0.851,0.380,0.672,0.633,�k��,11.4,��
2021/02/02,15:40,0.667,0.956,0.611,1.210,0.852,0.380,0.673,0.633,�k��,9.3,��
2021/02/02,15:50,0.667,0.956,0.612,1.209,0.853,0.381,0.671,0.632,�k��,12.8,��
2021/02/02,16:00,0.667,0.959,0.609,1.210,0.853,0.379,0.673,0.634,�k��,9.2,��
2021/02/02,16:10,0.666,0.958,0.609,1.210,0.853,0.381,0.673,0.631,�k��,11.8,��
2021/02/02,16:20,0.667,0.959,0.610,1.210,0.852,0.380,0.673,0.632,�k��,11.9,��
2021/02/02,16:30,0.668,0.956,0.608,1.208,0.854,0.380,0.672,0.632,�k��,15.7,��
2021/02/02,16:40,0.665,0.956,0.610,1.209,0.853,0.381,0.673,0.633,�k�k��,13.0,��
2021/02/02,16:50,0.666,0.957,0.609,1.209,0.853,0.381,0.673,0.633,�k��,8.5,��
2021/02/02,17:00,0.666,0.956,0.607,1.212,0.852,0.380,0.673,0.632,�k��,8.4,��
2021/02/02,17:10,0.666,0.957,0.610,1.212,0.852,0.379,0.672,0.632,�k��,10.3,��
2021/02/02,17:20,0.664,0.957,0.608,1.207,0.853,0.379,0.672,0.633,�k��,8.2,��
2021/02/02,17:30,0.664,0.957,0.610,1.211,0.853,0.380,0.674,0.633,�k��,11.7,��
2021/02/02,17:40,0.667,0.957,0.608,1.210,0.853,0.379,0.672,0.631,�k��,10.3,��
2021/02/02,17:50,0.665,0.958,0.609,1.209,0.851,0.377,0.673,0.633,�k��,11.8,��
2021/02/02,18:00,0.664,0.957,0.608,1.209,0.852,0.378,0.672,0.634,�k��,12.0,��
2021/02/02,18:10,0.665,0.955,0.608,1.210,0.853,0.378,0.674,0.634,�k��,12.1,��
2021/02/02,18:20,0.664,0.956,0.608,1.210,0.851,0.377,0.672,0.633,�k��,13.6,��
2021/02/02,18:30,0.667,0.954,0.608,1.210,0.853,0.377,0.672,0.632,�k��,13.0,��
2021/02/02,18:40,0.667,0.953,0.608,1.210,0.854,0.377,0.671,0.633,�k��,12.0,��
2021/02/02,18:50,0.665,0.954,0.606,1.209,0.852,0.379,0.673,0.633,�k�k��,11.6,��
2021/02/02,19:00,0.666,0.953,0.607,1.210,0.850,0.376,0.671,0.631,�k�k��,9.7,��
2021/02/02,19:10,0.664,0.956,0.606,1.211,0.851,0.377,0.673,0.632,�k�k��,8.2,��
2021/02/02,19:20,0.663,0.954,0.608,1.211,0.851,0.378,0.673,0.632,�k�k��,8.9,��
2021/02/02,19:30,0.665,0.955,0.606,1.208,0.851,0.377,0.673,0.631,�k�k��,9.7,��
2021/02/02,19:40,0.664,0.954,0.608,1.210,0.853,0.377,0.672,0.632,�k�k��,9.8,��
2021/02/02,19:50,0.666,0.956,0.609,1.210,0.851,0.377,0.670,0.631,�k�k��,9.0,��
2021/02/02,20:00,0.664,0.957,0.608,1.210,0.853,0.377,0.673,0.632,�k�k��,8.6,��
2021/02/02,20:10,0.664,0.955,0.610,1.208,0.852,0.377,0.672,0.631,�k�k��,8.5,��
2021/02/02,20:20,0.665,0.957,0.609,1.211,0.852,0.378,0.671,0.632,�k�k��,10.2,��
2021/02/02,20:30,0.664,0.956,0.610,1.209,0.852,0.378,0.672,0.632,�k�k��,8.6,��
2021/02/02,20:40,0.664,0.956,0.610,1.209,0.852,0.379,0.671,0.632,�k�k��,9.5,��
2021/02/02,20:50,0.664,0.956,0.610,1.210,0.850,0.379,0.671,0.631,�k�k��,8.8,��
2021/02/02,21:00,0.664,0.956,0.610,1.211,0.852,0.379,0.671,0.629,�k,6.9,��
2021/02/02,21:10,0.664,0.957,0.609,1.208,0.851,0.378,0.671,0.631,�k�k��,7.7,��
2021/02/02,21:20,0.664,0.955,0.609,1.209,0.850,0.379,0.670,0.633,�k�k��,8.3,��
2021/02/02,21:30,0.664,0.955,0.610,1.211,0.852,0.380,0.672,0.632,�k�k��,8.5,��
2021/02/02,21:40,0.665,0.956,0.609,1.210,0.852,0.379,0.672,0.631,�k�k��,7.4,��
2021/02/02,21:50,0.664,0.957,0.609,1.210,0.849,0.378,0.670,0.632,�k�k��,7.5,��
2021/02/02,22:00,0.663,0.955,0.608,1.212,0.851,0.378,0.670,0.633,�k,6.8,��
2021/02/02,22:10,0.663,0.956,0.608,1.209,0.853,0.378,0.671,0.633,�k�k��,7.9,��
2021/02/02,22:20,0.665,0.956,0.610,1.207,0.851,0.378,0.671,0.631,�k�k��,8.1,��
2021/02/02,22:30,0.663,0.957,0.607,1.210,0.853,0.378,0.672,0.633,�k�k��,7.0,��
2021/02/02,22:40,0.664,0.956,0.607,1.208,0.851,0.379,0.670,0.632,�k�k��,5.3,��
2021/02/02,22:50,0.663,0.956,0.608,1.206,0.851,0.378,0.670,0.630,�k�k��,4.1,��
2021/02/02,23:00,0.665,0.958,0.607,1.210,0.851,0.380,0.671,0.630,�k�k��,4.4,��
2021/02/02,23:10,0.663,0.957,0.608,1.209,0.849,0.378,0.673,0.631,�k�k��,5.7,��
2021/02/02,23:20,0.665,0.957,0.610,1.208,0.852,0.380,0.670,0.632,�k,5.9,��
2021/02/02,23:30,0.663,0.957,0.609,1.210,0.850,0.379,0.668,0.631,�k,7.4,��
2021/02/02,23:40,0.662,0.957,0.609,1.212,0.852,0.379,0.671,0.631,�k,7.6,��
2021/02/02,23:50,0.663,0.959,0.608,1.209,0.852,0.378,0.671,0.631,�k,7.1,��
